Flag for U.S.A. Weather past 2 weeks in Pomona, California, U.S.A.

Now
65 °F

Clear.


Feels Like: 65 °F
Forecast: 51 / 81 °F
Wind: 9 mph from West

Location: Chino Airport

Current Time: Apr 17, 2015 at 9:31:43 PM

Latest Report: Apr 17, 2015 at 8:53 PM


Visibility: 10 mi

Pressure: 30.00 "Hg

Humidity: 24%

Dew point: 27 °F

Location of PomonaLocation

Historic Weather in Pomona — Graph

°F

Pomona temperature yesterday

Maximum temperature yesterday: 82 °F (at 3:53 PM)
Minimum temperature yesterday: 57 °F (at 11:53 PM)
Average temperature yesterday: 71 °F

Past Weeks' High & Low Weather Summary

 TemperatureHumidityPressure
High87 °F (Apr 17, 1:53 PM)93% (Apr 8, 3:53 AM)30.11 "Hg (Apr 8, 3:53 AM)
Low45 °F (Apr 7, 5:53 AM)5% (Apr 3, 3:53 PM)29.82 "Hg (Apr 5, 4:53 PM)
Average63 °F49%29.97 "Hg
* Reported Apr 2 6:53 PM — Apr 17 6:53 PM, Pomona, Weather by CustomWeather, © 2015

Note: Actual official high and low records may vary slightly from our data, if they occured in-between our weather recording intervals... More about our weather records

Advertising

Pomona weather history for previous 24 hours

 ConditionsComfort  
Time TempWeatherWind HumidityBarometerVisibility
6:53 PM
Fri, Apr 17
74 °FSunny.14 mph15%29.96 "Hg10 mi
5:53 PM78 °FSunny.17 mph15%29.95 "Hg10 mi
4:53 PM82 °FSunny.18 mph12%29.94 "Hg10 mi
3:53 PM85 °FSunny.17 mph10%29.94 "Hg10 mi
2:53 PM87 °FSunny.10 mph8%29.95 "Hg10 mi
1:53 PM87 °FSunny.5 mph9%29.98 "Hg10 mi
12:53 PM85 °FSunny.5 mph7%30.00 "Hg10 mi
11:53 AM83 °FSunny.5 mph9%30.02 "Hg10 mi
10:53 AM77 °FSunny.5 mph12%30.04 "Hg10 mi
9:53 AM73 °FSunny.3 mph15%30.05 "Hg10 mi
8:53 AM66 °FSunny.3 mph23%30.06 "Hg10 mi
7:53 AM59 °FSunny.No wind32%30.06 "Hg6 mi
6:53 AM48 °FClear.No wind54%30.05 "Hg10 mi
5:53 AM49 °FClear.No wind52%30.04 "Hg9 mi
4:53 AM50 °FClear.5 mph54%30.04 "Hg7 mi
3:53 AM50 °FClear.No wind52%30.04 "Hg8 mi
2:53 AM52 °FClear.No wind43%30.04 "Hg8 mi
1:53 AM48 °FClear.No wind54%30.05 "Hg7 mi
12:53 AM53 °FClear.3 mph43%30.05 "Hg8 mi
11:53 PM
Thu, Apr 16
57 °FClear.3 mph34%30.06 "Hg8 mi
10:53 PM63 °FClear.No wind18%30.05 "Hg10 mi
9:53 PM61 °FClear.5 mph24%30.03 "Hg10 mi
Weather by CustomWeather, © 2015

See weather overviewHow to use our weather pages